TimeMST,TemperatureF,Dew PointF,Humidity,Sea Level PressureIn,VisibilityMPH,Wind Direction,Wind SpeedMPH,Gust SpeedMPH,PrecipitationIn,Events,Conditions,WindDirDegrees,DateUTC
12:15 AM,16.3,8.1,70,30.01,10.0,SE,5.8,-,N/A,,Clear,130,2012-12-11 07:15:00
12:35 AM,17.8,9.0,68,30.00,10.0,SE,4.6,-,N/A,,Clear,140,2012-12-11 07:35:00
12:55 AM,15.8,7.5,70,30.00,10.0,SE,3.5,-,N/A,,Clear,130,2012-12-11 07:55:00
1:15 AM,13.5,5.5,71,30.00,10.0,South,5.8,-,N/A,,Clear,190,2012-12-11 08:15:00
1:35 AM,12.0,5.0,73,30.00,10.0,NE,3.5,-,N/A,,Clear,40,2012-12-11 08:35:00
1:55 AM,14.0,6.4,72,30.00,10.0,NE,5.8,-,N/A,,Clear,40,2012-12-11 08:55:00
2:15 AM,14.0,7.0,74,30.01,10.0,East,9.2,-,N/A,,Clear,100,2012-12-11 09:15:00
2:35 AM,13.5,6.3,73,30.02,10.0,East,6.9,-,N/A,,Clear,80,2012-12-11 09:35:00
2:55 AM,11.5,4.8,75,30.01,10.0,East,5.8,-,N/A,,Clear,80,2012-12-11 09:55:00
3:15 AM,16.5,8.2,70,30.00,10.0,East,11.5,-,N/A,,Clear,80,2012-12-11 10:15:00
3:35 AM,16.5,7.7,68,30.02,10.0,NW,3.5,-,N/A,,Clear,310,2012-12-11 10:35:00
3:55 AM,13.3,5.9,72,30.02,10.0,Calm,Calm,-,N/A,,Clear,0,2012-12-11 10:55:00
4:15 AM,12.0,5.5,75,30.02,10.0,Calm,Calm,-,N/A,,Clear,0,2012-12-11 11:15:00
4:35 AM,6.3,1.6,81,30.02,10.0,NNE,4.6,-,N/A,,Clear,20,2012-12-11 11:35:00
5:15 AM,4.6,-0.4,80,30.04,10.0,NNE,4.6,-,N/A,,Clear,30,2012-12-11 12:15:00
5:35 AM,3.6,-0.9,82,30.04,10.0,North,4.6,-,N/A,,Clear,10,2012-12-11 12:35:00
5:55 AM,2.5,-1.8,82,30.04,10.0,NNE,5.8,-,N/A,,Clear,30,2012-12-11 12:55:00
6:15 AM,1.9,-2.4,82,30.05,10.0,NE,5.8,-,N/A,,Clear,40,2012-12-11 13:15:00
6:35 AM,2.3,-1.7,84,30.05,10.0,Calm,Calm,-,N/A,,Clear,0,2012-12-11 13:35:00
6:55 AM,2.5,-1.7,83,30.06,10.0,Calm,Calm,-,N/A,,Clear,0,2012-12-11 13:55:00
7:15 AM,5.7,0.1,78,30.06,10.0,Calm,Calm,-,N/A,,Clear,0,2012-12-11 14:15:00
7:35 AM,1.0,-3.8,80,30.06,10.0,Calm,Calm,-,N/A,,Clear,0,2012-12-11 14:35:00
7:55 AM,6.8,1.9,80,30.08,10.0,ENE,6.9,-,N/A,,Clear,70,2012-12-11 14:55:00
8:15 AM,14.0,7.5,75,30.08,10.0,NE,3.5,-,N/A,,Clear,50,2012-12-11 15:15:00
8:35 AM,17.6,9.5,71,30.08,10.0,North,3.5,-,N/A,,Clear,10,2012-12-11 15:35:00
8:55 AM,20.8,11.5,67,30.08,10.0,WNW,5.8,-,N/A,,Clear,300,2012-12-11 15:55:00
9:15 AM,22.8,12.4,64,30.09,10.0,WNW,5.8,-,N/A,,Clear,300,2012-12-11 16:15:00
9:35 AM,25.5,13.6,61,30.11,10.0,NE,6.9,-,N/A,,Clear,40,2012-12-11 16:35:00
9:55 AM,26.2,13.8,59,30.11,10.0,North,3.5,-,N/A,,Clear,360,2012-12-11 16:55:00
10:15 AM,26.6,14.4,60,30.10,10.0,NE,3.5,-,N/A,,Clear,50,2012-12-11 17:15:00
10:35 AM,28.0,15.1,58,30.10,10.0,NNE,4.6,-,N/A,,Clear,30,2012-12-11 17:35:00
10:55 AM,29.5,15.1,55,30.10,10.0,NE,6.9,-,N/A,,Clear,50,2012-12-11 17:55:00
11:15 AM,30.7,14.5,51,30.09,10.0,NE,3.5,-,N/A,,Clear,50,2012-12-11 18:15:00
11:35 AM,31.6,15.1,50,30.08,10.0,NE,6.9,-,N/A,,Clear,50,2012-12-11 18:35:00
11:55 AM,32.9,17.1,52,30.08,10.0,NE,9.2,-,N/A,,Clear,50,2012-12-11 18:55:00
12:15 PM,32.9,16.9,52,30.07,10.0,NE,6.9,-,N/A,,Clear,50,2012-12-11 19:15:00
12:35 PM,34.2,15.8,47,30.06,10.0,NE,5.8,-,N/A,,Clear,40,2012-12-11 19:35:00
12:55 PM,35.1,15.8,45,30.06,10.0,SE,3.5,-,N/A,,Clear,130,2012-12-11 19:55:00
1:15 PM,36.3,15.1,42,30.05,10.0,East,4.6,-,N/A,,Clear,90,2012-12-11 20:15:00
1:35 PM,36.7,12.2,37,30.04,10.0,Calm,Calm,-,N/A,,Clear,0,2012-12-11 20:35:00
1:55 PM,37.4,13.6,38,30.03,10.0,SE,4.6,-,N/A,,Clear,130,2012-12-11 20:55:00
2:15 PM,36.3,13.3,39,30.03,10.0,ESE,3.5,-,N/A,,Clear,110,2012-12-11 21:15:00
2:35 PM,36.5,14.5,41,30.03,10.0,SE,3.5,-,N/A,,Clear,130,2012-12-11 21:35:00
2:55 PM,36.5,12.9,38,30.04,10.0,South,3.5,-,N/A,,Clear,180,2012-12-11 21:55:00
3:15 PM,37.0,14.9,40,30.04,10.0,ESE,3.5,-,N/A,,Clear,110,2012-12-11 22:15:00
3:35 PM,37.0,13.3,38,30.04,10.0,Calm,Calm,-,N/A,,Clear,0,2012-12-11 22:35:00
3:55 PM,38.3,12.2,34,30.04,10.0,West,12.7,18.4,N/A,,Clear,270,2012-12-11 22:55:00
4:15 PM,37.4,11.1,34,30.04,10.0,West,11.5,-,N/A,,Clear,280,2012-12-11 23:15:00
4:35 PM,36.1,11.5,36,30.04,10.0,West,10.4,17.3,N/A,,Clear,270,2012-12-11 23:35:00
4:55 PM,33.1,12.9,43,30.04,10.0,West,12.7,-,N/A,,Clear,270,2012-12-11 23:55:00
5:15 PM,32.2,12.6,44,30.05,10.0,West,10.4,-,N/A,,Clear,270,2012-12-12 00:15:00
5:35 PM,31.8,11.3,43,30.06,10.0,West,8.1,-,N/A,,Clear,270,2012-12-12 00:35:00
5:55 PM,29.7,11.7,47,30.06,10.0,West,8.1,-,N/A,,Clear,270,2012-12-12 00:55:00
6:15 PM,27.1,12.4,54,30.07,10.0,West,5.8,-,N/A,,Clear,260,2012-12-12 01:15:00
6:35 PM,26.2,12.6,56,30.07,10.0,West,5.8,-,N/A,,Clear,260,2012-12-12 01:35:00
6:55 PM,27.7,11.8,51,30.06,10.0,WSW,9.2,-,N/A,,Clear,250,2012-12-12 01:55:00
7:15 PM,26.4,10.8,52,30.06,10.0,WSW,4.6,-,N/A,,Clear,250,2012-12-12 02:15:00
7:35 PM,28.4,9.3,45,30.06,10.0,Calm,Calm,-,N/A,,Clear,0,2012-12-12 02:35:00
7:55 PM,22.6,11.3,62,30.07,10.0,Calm,Calm,-,N/A,,Clear,0,2012-12-12 02:55:00
8:15 PM,23.4,10.8,59,30.06,10.0,SE,3.5,-,N/A,,Clear,130,2012-12-12 03:15:00
8:35 PM,24.4,10.9,57,30.06,10.0,ESE,3.5,-,N/A,,Clear,120,2012-12-12 03:35:00
8:55 PM,31.1,10.2,42,30.07,10.0,Calm,Calm,-,N/A,,Clear,0,2012-12-12 03:55:00
9:15 PM,27.9,10.2,48,30.08,10.0,Calm,Calm,-,N/A,,Clear,0,2012-12-12 04:15:00
9:35 PM,24.6,11.3,57,30.08,10.0,Calm,Calm,-,N/A,,Clear,0,2012-12-12 04:35:00
9:55 PM,26.2,10.2,51,30.08,10.0,WSW,3.5,-,N/A,,Clear,250,2012-12-12 04:55:00
10:15 PM,27.1,10.8,50,30.08,10.0,West,9.2,-,N/A,,Clear,260,2012-12-12 05:15:00
10:35 PM,23.5,10.4,57,30.08,10.0,WSW,9.2,-,N/A,,Clear,240,2012-12-12 05:35:00
10:55 PM,23.4,10.9,59,30.09,10.0,West,10.4,-,N/A,,Clear,270,2012-12-12 05:55:00
11:15 PM,25.7,9.9,51,30.08,10.0,WNW,9.2,-,N/A,,Clear,300,2012-12-12 06:15:00
11:35 PM,25.7,9.5,50,30.08,10.0,NW,6.9,-,N/A,,Clear,310,2012-12-12 06:35:00
11:55 PM,26.4,9.7,49,30.08,10.0,WNW,5.8,-,N/A,,Clear,300,2012-12-12 06:55:00